COSMOS 2432 (719) (32276 NORAD) Tracking and Keplerian Element Data

This shows tracking and keplerian element data for the satellite.

Feedback or suggestion? Click here.




ElementValue
Catalog32276
NameCOSMOS 2432 (719)
Epoch Orbit8347
Epoch Day198.64122188
Epoch Year2018
RAAN52.4174
Inclination65.7139
Eccentricity0.0011109
Argument of Perigee343.6914
Mean Anonmoly195.0056
Mean Motion2.13103981
Decay Rate-5.3E-07
L11 32276U 07052B 18198.64122188 -.00000053 00000-0 10000-3 0 9996
L22 32276 65.7139 52.4174 0011109 343.6914 195.0056 2.13103981 83474

Live tracking and technical data element details for COSMOS 2432 (719) (NORAD 32276). COSMOS 2432 (719) can be tracked NOW for your location showing map with azimuth and elevation plus other details from your city location.

Track the satellite on the map from your city or location and see movement details for azimuth, elevation, latitude, longitude, range, height, and movement on the map or in text.







IsCatalogInMostPopularTable: catalog: 32276, numindb: 41
Update: records affected: 1



GetName: 32276 COSMOS 2432 (719)

Hit Count: updated at: Thu, 19 Jul 2018 03:24:13 GMT